#timestamp,LO_Frequency,Hit,StdDev 
1552284015.4,286046998.9,N
1552284035.2,286046998.1,N
1552284055.0,286047000.0,N
1552284056.0,286047000.0,N
1552284075.8,286046998.3,N
1552284095.6,286046998.3,N
1552284115.5,286047002.4,N
1552284135.3,286047001.7,N
1552284155.1,286047000.3,N
1552284175.9,286046999.8,N
1552284195.7,286047002.3,N
1552284215.6,286047000.6,N
1552284235.4,286046999.3,N
1552284255.2,286046997.7,N
1552284275.1,286046996.6,N
1552284276.0,286046996.6,N
1552284295.8,286047000.9,N
1552284315.6,286046999.9,N
1552284335.5,286047001.5,N
1552284355.3,286047001.5,N
1552284375.2,286047004.0,N
1552284395.9,286047003.8,N
1552284415.7,286047001.8,N
1552284435.6,286047003.9,N
1552284455.4,286047002.6,N
1552284475.2,286047004.0,N
1552284495.1,286047003.7,N
1552284496.0,286047003.7,N
1552284515.8,286047002.9,N
1552284535.7,286047003.3,N
1552284555.5,286047001.3,N
1552284575.3,286047004.0,N
1552284595.2,286047002.7,N
1552284615.0,286046999.8,N
1552284615.9,286046999.8,N
1552284635.7,286047000.2,N
1552284655.6,286047001.6,N
1552284675.4,286047002.2,N
1552284695.3,286047000.0,N
1552284715.1,286046999.9,N
1552284716.0,286046999.9,N
1552284735.8,286047002.3,N
1552284755.7,286047002.3,N
1552284775.5,286047002.0,N
1552284795.3,286047002.0,N
1552284815.2,286047001.9,N
1552284835.0,286047002.0,N
1552284835.9,286047002.0,N
1552284855.8,286047004.1,Y
1552284875.6,286047002.7,P
1552284895.4,286047001.6,P
1552284915.3,286047001.7,P
1552284935.1,286047001.9,Y
1552284955.9,286046998.6,P
1552284975.7,286046998.4,N
1552284995.5,286046997.7,N
1552285015.4,286046994.9,Y
1552285035.2,286046997.8,P
1552285055.0,286046999.5,N
1552285056.0,286046999.5,N
1552285075.8,286046997.4,Y
1552285095.6,286046999.3,P
1552285115.5,286047000.9,P
1552285135.3,286047002.2,N
1552285155.1,286047001.4,N
1552285175.9,286047005.3,Y
1552285195.7,286047002.2,P
1552285215.6,286047000.0,N
1552285235.4,286047000.9,N
1552285255.2,286047001.1,N
1552285275.1,286047000.7,N
1552285276.0,286047000.7,N
1552285295.8,286046996.5,Y
1552285315.6,286046996.3,P
1552285335.5,286046997.6,N
1552285355.3,286046998.9,N
1552285375.2,286046999.3,N
1552285395.0,286046998.9,N
1552285395.9,286046998.9,N
1552285415.7,286046998.3,N
1552285435.6,286047000.1,N
1552285455.4,286046999.4,N
1552285475.3,286046996.6,N
1552285495.1,286046998.5,N
1552285515.8,286046999.5,N
1552285535.7,286046999.0,N
1552285555.5,286047000.8,N
1552285575.3,286047000.7,N
1552285595.2,286046998.4,N
1552285615.0,286046996.9,N
1552285615.9,286046996.9,N
1552285635.8,286046998.9,N
1552285655.6,286047000.9,N
1552285675.4,286047000.2,N
1552285695.3,286046998.1,N
1552285715.1,286047001.2,N
1552285735.9,286047000.8,N
1552285755.7,286047002.7,N
1552285775.5,286047002.7,N
1552285795.4,286047001.0,N
1552285815.2,286047001.2,N
1552285835.0,286047001.6,N
1552285835.9,286047001.6,N
1552285855.8,286047001.5,N
1552285875.6,286047002.7,N
1552285895.5,286047000.6,N
1552285915.3,286046996.9,N
1552285935.1,286046996.8,N
1552285955.9,286046997.0,N
1552285975.7,286046999.5,N
1552285995.5,286046998.8,N
1552286015.4,286046998.1,N
1552286035.2,286047000.7,N
1552286055.1,286046996.5,N
1552286056.0,286046996.5,N
1552286075.8,286046997.3,N
1552286095.6,286046998.7,N
1552286115.5,286046996.6,N
1552286135.3,286046996.6,N
1552286155.1,286046998.8,N
1552286175.9,286047002.7,N
1552286195.7,286047002.5,N
1552286215.6,286047002.6,N
1552286235.4,286047000.9,N
1552286255.2,286047000.4,N
1552286275.1,286046998.7,N
1552286276.0,286046998.7,N
1552286295.8,286047000.7,N
1552286315.7,286047000.3,N
1552286335.5,286046999.9,N
1552286355.3,286047001.4,N
1552286375.2,286047002.5,N
1552286395.0,286047000.1,N
1552286395.9,286047000.1,N
1552286415.7,286047002.2,N
1552286435.6,286047001.9,N
1552286455.4,286046998.1,N
1552286475.3,286046999.3,N
1552286495.1,286046999.2,N
1552286515.8,286046996.7,N
1552286535.7,286046999.3,N
1552286555.5,286046998.3,N
1552286575.4,286047000.6,N
1552286595.2,286046998.7,N
1552286615.0,286047001.2,N
1552286615.9,286047001.2,N
1552286635.8,286047000.0,N
1552286655.6,286047002.6,N
1552286675.4,286047002.1,N
1552286695.3,286046999.9,N
1552286715.1,286047002.5,N
1552286735.9,286047002.0,N
1552286755.7,286047001.7,N
1552286775.5,286047000.1,N
1552286795.4,286047000.0,N
1552286815.2,286047000.5,N
1552286835.0,286047002.7,N
1552286835.9,286047002.7,N
1552286855.8,286047001.2,N
1552286875.6,286046998.8,N
1552286895.5,286046998.7,N
1552286915.3,286047000.5,N
1552286935.1,286047000.9,N
1552286955.9,286046999.1,N
1552286975.7,286047000.0,N
1552286995.5,286046998.7,N
1552287015.4,286046999.4,N
1552287035.2,286046998.3,N
1552287055.1,286046999.3,N
1552287056.0,286046999.3,N
1552287075.8,286046999.1,N
1552287095.6,286046999.0,N
1552287115.5,286046996.7,N
1552287135.3,286046999.1,N
1552287155.1,286046998.2,N
1552287175.9,286046996.6,N
1552287195.7,286046997.5,N
1552287215.6,286046996.7,N
1552287235.4,286046998.7,N
1552287255.2,286047001.0,N
1552287275.1,286047002.5,N
1552287276.0,286047002.5,N
1552287295.8,286046999.0,N
1552287315.7,286047001.2,N
1552287335.5,286047000.7,N
1552287355.3,286047002.4,N
1552287375.2,286046998.1,N
1552287395.0,286046997.0,N
1552287395.9,286046997.0,N
1552287415.8,286046996.7,N
1552287435.6,286046999.5,N
1552287455.4,286046996.7,N
1552287475.3,286046996.7,N
1552287495.1,286046996.8,N
1552287496.0,286046996.8,N
1552287515.8,286046998.3,N
1552287535.7,286046998.5,N
1552287555.5,286047000.1,N
1552287575.4,286047000.9,N
1552287595.2,286046998.2,N
